Location: Rotheul
(50.2849°N, 11.2349°E)
Time: 17:26:51
(UTC+02:00)

ISS - Pass Details

Date: 22 May 2018
Orbit: 402 x 407 km, 51.6° (Epoch: 27 May)

Event Time Altitude Azimuth Distance (km) Brightness Sun altitude
Rises 01:27:38 0° 277° (W) 2,319 0.1 -19.3°
Reaches altitude 10° 01:29:43 10° 280° (W) 1,459 -1.0 -19.3°
Maximum altitude 01:32:58 68° 3° (N) 439 -3.5 -19.2°
Drops below altitude 10° 01:36:14 10° 88° (E) 1,457 -0.9 -19.2°
Sets 01:38:19 0° 91° (E) 2,316 0.1 -19.1°
